STARLINK-4328, 53071

Orbit data source: Space-Track

STARLINK-4328, 53071 is a payload satellite owned by SpaceX/Seattle (US) in SSO that was launched on Mon, 11 Jul 2022 UTC via an FALCON 9 launch vehicle from the Air Force Western Test Range (AFWTR). Payload-class satellites include a variety of spacecraft equipped with specific instruments for various scientific and technological missions. These include communications satellites like Starlink; space stations such as the ISS; scientific satellites like the Hubble; Earth observation satellites from companies like Planet Labs, Umbra, and HawkEye 360; GPS; miniature CubeSats for education and research; and military/defense satellites.

Loading next visibility...
Identifier
53071, 2022-077AE
Orbit
SSO
Country
Flag of USUS
Related business
Manufacturer
SpaceX/Seattle
Mission
Operational Commercial Communications
Bus & Motor
STARLINK, Unknown motor
Mass
297 kg wet, ~275 kg dry
Launch date (UTC)
2022-07-11 (3 years ago)
Launch vehicle
FALCON 9
Launch site
Air Force Western Test Range (AFWTR)
Object type
Payload
Rocket body
Debris
Shape & HBR
Box + 1 Pan, 10.1 m
Radar Cross Section
13.562 m², Large (>1 m²)

Expand to show TLE details & history
Last TLE update: 16 hours ago

TLE from 16 hours ago
0 STARLINK-4328
1 53071U 22077AE  25348.92537812  .00002737  00000-0  19377-3 0  9992
2 53071  97.6013 167.7462 0001685  91.1775 268.9644 15.05653450188232
Epoch: 2025-12-14T22:12Z
TLE epoch observation values (Epoch: 2025-12-14T22:12:32.669Z)
Latitude
-0.00011°
Longitude
110.77879°
Altitude
552.587 km
Speed
7.585 km/s
True Right ascension
11h 10m 59s
True Declination
0° 00' 00"
Sunlit
Object was in daylight at epoch
Visualization orbit readout
Latitude
Unknown
Longitude
Unknown
Altitude
Unknown
Speed
Unknown
Apparent Right ascension
Unknown
Apparent Declination
Unknown
Sunlit
N/A
Visualization observer readout
Local Sidereal Time
13:19:50
Azimuth
Unknown
Elevation
Unknown
Doppler factor
Unknown
Orbital elements
Apogee altitude
547.661 km
Perigee altitude
545.327 km
Semi-major axis
6,924.631 km
Eccentricity
0.00017
Inclination
97.6013°
RAAN
167.7462°
Arg. of periapsis
91.1775°
True anomaly
268.94509°
Mean anomaly
268.9644°
Eccentric anomaly
268.95475°
Mean motion
3.76659 °/min
Orbital period
95.58 mins
BSTAR
0.00019377
Loading maneuver chart data...
Computing Atmospheric mass density...
Loading historical data...
Loading historical data...
Loading historical data...
Loading historical data...
Loading historical data...
Loading historical data...
Loading historical data...

Documentation

Showing up to 5 results
|